ONEWEB-0125 (47271 NORAD) Tracking and Keplerian Element Data

This shows tracking and keplerian element data for the satellite.

Feedback or suggestion? Click here.




ElementValue
Catalog47271
NameONEWEB-0125
Epoch Orbit1639
Epoch Day101.91668981
Epoch Year2021
RAAN6.8543
Inclination87.9539
Eccentricity0.0001066
Argument of Perigee113.9395
Mean Anonmoly48.5142
Mean Motion13.28051457
Decay Rate-0.0003704
L11 47271U 20100P 21101.91668981 -.00037040 00000-0 -82088-1 0 9990
L22 47271 87.9539 6.8543 0001066 113.9395 48.5142 13.28051457 16393

Live tracking and technical data element details for ONEWEB-0125 (NORAD 47271). ONEWEB-0125 can be tracked NOW for your location showing map with azimuth and elevation plus other details from your city location.

Track the satellite on the map from your city or location and see movement details for azimuth, elevation, latitude, longitude, range, height, and movement on the map or in text.







IsCatalogInMostPopularTable: catalog: 47271, numindb: 35
Update: records affected: 1



GetName: 47271 ONEWEB-0125

Hit Count: updated at: Tue, 13 Apr 2021 04:22:38 GMT